SCP
0 0 0 0 0 0 0 0 0 0 0 1 1 1 1 0 0 0 0 0 0 0 0 0 0 -0 -0 0 0 0 0 0 0 0 0 0 0 0 0 0 0 0 0
-0 0 0 0 0 0 0 0 0 0 0 1 1 1 1 0 0 0 0 0 0 0 0 0 0 0 -0 0 0 0 0 0 0 0 0 0 0 0 0 0 0 0 -0
-0 0 0 0 0 0 0 0 0 0 0 1 1 1 1 0 0 0 0 0 0 0 0 0 0 0 0 0 0 0 0 0 0 0 0 0 0 0 0 0 0 0 0
-0 -0 0 0 0 0 0 0 0 0 0 0 1 1 1 0 0 0 0 1 0 0 -0 0 0 0 0 0 0 -0 0 0 0 0 0 0 0 0 0 0 0 0 0
-0 -0 0 0 0 0 0 0 0 0 0 0 0 0 0 0 0 0 0 1 0 0 0 0 0 0 0 0 0 -0 0 0 0 0 0 0 0 0 0 0 0 0 0
0 0 0 0 0 0 0 0 0 0 0 0 0 0 0 0 0 0 0 0 1 1 1 0 0 0 0 0 0 0 0 0 0 0 0 0 0 0 0 0 0 0 0
0 0 -0 0 0 0 0 0 0 0 0 0 0 0 0 0 0 0 0 0 0 1 1 1 1 1 0 0 0 0 0 0 0 0 0 0 0 0 0 0 0 0 0
-0 -0 0 0 0 0 0 0 0 0 0 0 0 0 0 0 0 0 0 0 0 0 1 1 1 1 0 0 0 0 0 0 0 0 0 0 0 0 0 0 0 0 0
-0 -0 0 0 0 0 0 0 0 0 0 0 0 0 0 0 0 0 0 0 0 0 0 1 1 1 0 0 0 0 0 0 0 0 0 0 0 0 0 0 0 0 0
-0 -0 0 0 0 0 0 0 0 0 0 0 0 0 0 0 0 0 0 0 0 0 0 1 1 1 0 0 0 0 0 0 0 0 0 0 0 0 0 0 0 0 0
-0 -0 0 0 0 0 0 0 0 0 0 0 0 0 0 0 0 0 0 0 0 0 0 0 1 1 0 0 0 0 0 0 0 0 0 0 0 0 0 0 0 0 0
-0 -0 0 0 0 0 0 0 0 0 0 0 0 0 0 -0 0 0 0 0 0 0 0 0 1 1 1 0 0 0 0 0 0 0 0 0 0 0 0 0 0 0 0
-0 0 -0 0 0 0 0 0 0 0 0 0 0 0 0 0 -0 0 0 0 0 0 -0 0 0 1 1 1 0 0 0 0 0 0 0 0 0 0 0 0 0 0 0
-0 0 -0 -0 0 0 -0 0 0 0 0 0 0 0 0 0 0 0 0 0 -0 0 0 0 0 1 1 1 0 0 0 0 0 0 0 0 0 0 0 0 0 0 0
-0 -0 -0 -0 -0 0 -0 0 0 0 0 0 0 0 0 0 0 0 0 0 0 0 0 0 0 0 1 1 1 0 0 0 0 0 0 0 0 0 0 0 0 0 0
-0 -0 0 0 -0 -0 -0 0 0 0 0 0 0 0 0 0 0 0 0 0 0 0 0 0 0 0 1 1 1 0 0 0 0 0 0 0 0 0 0 0 0 0 0
-0 -0 -0 0 0 0 0 0 0 0 0 0 0 0 0 0 0 0 0 0 0 0 0 0 -0 0 1 1 1 1 0 0 0 0 0 0 0 0 0 0 0 0 0
-0 -0 -0 0 0 0 0 -0 0 0 0 0 0 0 0 0 0 0 0 0 0 0 0 0 0 0 0 0 1 0 1 0 0 0 0 0 0 0 0 0 0 0 0
-0 -0 -0 -0 0 0 -0 0 0 0 0 0 0 0 0 0 0 0 0 0 0 0 0 0 0 0 0 0 0 0 0 0 0 0 0 0 0 0 0 0 0 0 0
-0 -0 -0 -0 -0 -0 -0 0 0 0 0 0 0 0 0 0 0 0 0 0 0 0 0 0 -0 0 0 0 0 0 0 0 0 0 0 0 0 0 0 0 0 0 0
-0 -0 -0 -0 -0 -0 -0 0 0 0 0 0 0 0 0 0 0 0 0 0 0 0 0 0 -0 0 0 0 0 0 1 0 0 0 0 0 0 0 0 0 0 0 0
-0 -0 -0 -0 -0 -0 -0 0 0 0 0 0 0 0 0 0 0 0 0 0 0 0 0 0 0 0 0 0 0 0 0 0 0 0 0 0 0 0 0 0 0 0 0
-0 -0 -0 -0 0 -0 -0 -0 0 0 0 0 0 0 0 0 0 0 0 0 0 0 0 0 0 0 0 0 0 0 0 0 0 0 0 0 0 0 0 0 0 0 0
-0 -0 -0 -0 -0 -0 -0 -0 -0 0 0 0 0 0 0 0 0 0 0 0 0 0 0 0 0 0 0 0 0 0 0 0 0 0 0 0 0 0 0 0 0 0 0
-0 -0 -0 -0 -0 0 -0 -0 -0 0 0 0 0 0 0 0 0 0 0 0 0 0 0 0 0 0 0 0 0 0 0 0 0 0 0 0 0 0 0 0 0 0 0
-0 -0 -0 -0 0 -0 -0 -0 -0 -0 0 0 0 0 0 0 0 0 0 0 0 0 0 0 0 0 0 0 0 0 0 0 0 0 0 0 0 0 0 0 0 0 0
Wind_Speed_500mb
68 59 42 37 46 34 54 55 61 63 67 63 54 54 60 63 64 65 55 58 69 62 57 59 62 62 59 55 52 51 46 42 39 36 31 25 22 21 23 20 11 7 6
68 64 48 32 38 37 41 41 63 55 65 66 57 55 57 62 60 62 64 52 59 57 60 62 62 64 62 58 56 53 48 44 41 38 33 29 26 25 28 20 15 11 8
72 59 57 46 36 36 37 35 53 45 57 63 59 54 54 59 62 63 63 57 62 78 76 63 69 65 64 60 59 55 50 46 43 40 36 32 28 26 25 19 18 15 12
67 60 57 58 48 36 37 27 52 39 20 64 58 55 52 53 57 60 64 61 61 64 89 88 78 69 66 63 62 58 53 48 46 43 39 35 30 26 28 23 22 19 17
61 54 58 60 60 46 33 29 28 34 33 23 50 54 52 54 59 57 61 64 57 59 60 72 70 70 68 65 65 61 56 52 49 46 43 39 33 30 34 29 26 22 20
49 48 53 58 61 57 40 34 29 18 44 20 47 45 53 50 60 63 62 62 64 57 64 63 66 70 70 68 67 65 60 56 53 51 46 42 37 38 38 34 31 25 22
40 39 46 53 58 61 52 44 39 26 7 31 49 78 67 57 59 59 65 68 64 66 71 76 74 75 76 72 70 69 64 60 57 56 50 46 42 35 41 38 34 30 25
46 48 48 50 53 60 59 51 43 36 26 19 4 18 40 64 74 58 64 64 67 66 76 85 82 79 78 79 78 77 69 64 61 59 55 51 46 41 45 42 38 36 32
48 49 56 53 51 51 61 58 43 40 38 33 10 7 12 24 53 63 56 71 69 70 75 79 83 80 78 81 79 78 76 70 66 63 60 56 52 49 48 46 43 43 40
48 51 55 52 49 48 55 59 51 37 36 34 18 21 16 11 23 34 52 56 75 79 75 75 83 85 85 84 83 83 82 78 71 67 63 61 59 53 54 52 49 44 43
51 49 53 52 49 50 51 57 56 50 34 32 29 35 52 37 29 34 41 47 62 87 75 82 88 91 92 88 88 86 86 82 77 72 67 65 63 58 57 56 53 49 46
60 53 51 54 51 51 52 53 56 47 36 29 27 28 32 39 16 5 43 45 69 84 85 87 91 91 87 87 91 89 88 86 81 77 73 69 67 65 61 57 51 50 45
62 55 51 50 51 50 50 50 57 51 37 29 26 27 34 41 50 43 36 35 49 61 59 87 88 90 86 86 85 92 86 87 85 81 77 71 69 69 68 65 54 50 47
57 50 49 46 45 45 50 53 59 47 40 30 26 24 29 43 40 50 53 16 42 66 75 72 87 85 95 98 91 87 87 86 87 83 78 74 71 71 71 70 64 55 51
51 44 46 47 50 51 48 58 62 45 42 35 30 28 29 33 41 48 52 38 41 44 55 72 64 80 96 103 95 90 85 85 88 85 82 79 77 75 74 73 70 64 57
42 41 44 46 51 51 46 64 59 47 43 36 36 33 30 30 38 44 38 57 39 55 53 64 70 82 95 103 102 93 91 87 82 85 81 78 73 73 77 77 75 71 66
42 43 46 48 50 51 49 68 58 49 41 39 41 38 33 27 31 33 45 40 50 62 70 74 60 88 80 103 108 97 95 94 86 87 82 76 76 71 69 73 77 77 73
42 44 46 48 51 50 51 72 63 52 44 45 42 43 40 29 23 29 42 39 46 57 68 64 85 31 57 71 94 96 100 99 95 92 87 75 75 75 72 69 71 77 77
45 45 46 47 51 47 59 70 61 51 44 40 42 41 42 36 25 25 31 33 37 68 74 90 70 64 44 37 75 94 101 105 103 97 91 80 76 75 75 71 67 66 69
47 47 46 47 47 43 59 66 61 48 42 41 37 41 40 37 34 27 25 28 32 56 60 81 78 72 58 47 34 72 93 102 107 102 94 90 82 80 80 76 71 69 67
46 46 44 46 51 41 58 61 58 45 42 42 40 42 41 40 33 29 27 25 28 33 59 66 76 80 66 55 55 39 67 86 102 110 98 94 91 91 89 86 79 74 73
48 47 47 45 52 52 54 56 52 43 45 42 44 44 44 47 42 36 20 21 29 43 37 47 63 86 81 67 54 53 41 60 75 97 106 98 97 96 90 87 81 79 79
49 49 48 46 47 51 52 56 51 48 45 42 44 48 49 49 51 49 30 15 21 36 34 50 46 69 74 74 61 48 44 46 65 69 96 105 98 98 94 89 85 84 83
49 49 45 48 44 47 50 52 54 50 47 46 41 46 49 51 51 50 44 20 9 20 32 43 50 55 64 67 66 49 54 37 52 51 68 83 98 99 100 93 85 84 85
52 50 47 51 50 49 51 52 55 55 53 49 50 45 46 50 51 47 46 38 18 9 17 36 35 46 50 53 58 58 60 49 60 64 34 67 82 81 89 85 78 74 69
51 54 52 51 51 52 53 53 55 56 55 52 50 51 49 45 46 47 46 49 43 33 13 19 32 42 45 47 46 39 38 49 49 56 69 59 49 74 77 79 78 74 70
Wind_Direction_500mb
353 350 328 294 276 259 240 232 227 229 233 229 221 216 214 212 208 212 218 204 205 203 206 208 200 198 194 190 192 190 191 191 191 193 195 196 188 186 185 185 208 202 206
348 351 351 324 289 281 256 270 227 229 222 226 222 219 212 216 215 214 221 217 202 207 205 210 206 200 196 193 194 194 195 196 197 199 201 201 195 191 193 195 210 212 208
345 349 358 349 324 290 283 278 239 246 216 222 219 219 214 216 217 222 220 217 203 222 204 214 211 204 199 196 197 198 199 200 201 202 205 206 204 200 209 214 219 222 218
342 347 354 358 345 318 310 296 244 272 204 217 208 209 214 215 220 224 225 220 221 221 214 204 211 208 205 201 200 201 202 203 205 206 207 210 211 207 211 217 225 229 217
338 351 349 356 356 344 328 299 276 267 281 155 206 211 207 214 220 224 226 227 224 224 211 202 211 211 211 207 205 205 205 206 207 209 209 213 212 209 205 218 224 229 208
341 355 352 349 358 356 344 338 293 292 247 230 223 206 219 223 222 223 224 228 222 217 212 217 214 215 215 213 210 208 208 208 209 211 212 215 211 209 206 209 219 222 199
340 349 345 350 353 359 354 342 334 311 255 240 215 226 223 224 235 230 226 225 226 230 223 217 215 214 213 215 214 211 210 212 212 213 213 214 215 223 210 212 213 206 196
353 357 351 357 355 355 1 355 349 327 297 311 206 190 222 230 223 237 227 225 224 224 224 220 215 216 214 214 217 212 212 214 215 217 215 214 216 212 212 211 210 209 200
357 358 357 354 357 356 359 1 354 344 317 304 237 277 185 212 220 236 229 230 225 223 218 219 218 218 218 221 219 215 213 214 217 218 218 216 212 211 212 216 215 213 204
359 358 353 353 357 356 357 358 359 346 337 313 276 203 233 192 215 224 222 225 227 228 227 235 228 225 222 223 224 220 216 215 218 219 220 218 218 219 219 221 220 220 210
356 357 355 353 356 358 356 355 357 357 340 327 304 273 252 250 233 203 224 220 224 229 238 234 232 226 227 224 226 225 222 218 217 221 220 221 221 223 220 225 222 225 216
358 357 358 356 355 355 356 352 353 354 351 330 312 280 265 265 223 174 220 215 220 231 235 231 228 227 226 228 226 229 226 223 220 221 222 222 223 224 228 235 230 223 224
0 355 352 353 354 353 352 349 351 351 355 342 323 298 262 249 257 246 256 246 233 231 241 229 231 231 228 229 231 230 229 228 224 223 224 225 224 225 227 235 240 236 232
353 351 348 353 351 351 350 348 351 352 354 346 331 306 289 248 250 240 254 252 231 227 242 248 235 232 232 229 228 231 230 227 225 226 225 226 227 227 228 232 238 236 236
351 349 349 352 353 354 352 353 352 355 357 353 341 326 306 265 243 248 244 234 247 208 227 243 231 239 232 232 229 227 228 226 223 224 224 227 229 228 230 232 237 238 235
0 355 354 355 355 359 354 352 354 358 358 1 350 331 311 286 254 246 242 230 242 230 232 236 230 241 236 231 231 227 227 226 223 222 221 223 226 226 229 232 235 238 237
4 0 359 360 359 2 352 354 359 359 1 360 354 343 331 302 263 248 240 241 224 242 235 235 253 231 233 233 230 227 230 228 224 219 219 222 223 223 225 229 232 235 236
4 2 2 360 359 358 349 355 358 360 4 2 351 351 344 325 274 263 241 241 217 226 238 230 234 239 211 227 231 230 229 227 224 219 218 223 225 226 226 227 230 232 235
5 6 7 1 357 1 351 355 357 360 5 360 358 354 352 343 318 275 253 243 236 216 232 229 242 258 243 219 224 230 231 230 227 224 219 226 230 230 230 228 229 232 234
6 7 9 6 359 0 347 354 357 4 4 360 3 5 0 355 343 317 282 251 240 221 227 239 244 244 253 249 212 219 227 230 228 225 223 226 229 233 235 233 232 233 234
10 9 8 8 2 356 351 356 358 7 6 4 8 7 7 2 352 339 310 266 255 223 215 228 233 232 245 255 248 218 221 232 230 226 226 226 225 230 232 233 233 234 236
11 9 8 10 0 3 360 4 5 7 11 10 7 7 9 6 358 352 332 294 259 244 229 212 233 230 240 251 256 246 220 217 219 226 226 228 225 227 229 230 231 231 231
8 9 10 12 11 8 5 8 11 14 14 11 11 6 7 8 6 358 355 323 267 246 233 226 214 225 241 243 245 241 238 230 225 224 227 229 229 232 234 236 237 239 241
9 8 11 14 15 18 12 13 15 17 16 19 14 14 9 7 7 4 1 356 303 244 241 235 227 206 218 233 239 238 248 238 236 216 223 233 237 236 237 238 239 240 240
15 17 19 18 22 24 22 18 16 19 18 18 21 16 15 11 5 6 6 15 5 293 240 242 229 208 209 209 224 224 230 234 245 229 219 224 236 241 238 239 238 237 237
17 23 24 24 25 26 26 22 20 18 19 21 22 17 16 14 10 9 12 14 16 8 329 242 250 247 241 232 229 197 220 240 249 256 237 245 227 232 238 239 239 239 241
Wind_Speed_850mb
68 59 42 37 46 34 54 55 61 63 67 63 54 54 60 63 64 65 55 58 69 62 57 59 62 62 59 55 52 51 46 42 39 36 31 25 22 21 23 20 11 7 6
68 64 48 32 38 37 41 41 63 55 65 66 57 55 57 62 60 62 64 52 59 57 60 62 62 64 62 58 56 53 48 44 41 38 33 29 26 25 28 20 15 11 8
72 59 57 46 36 36 37 35 53 45 57 63 59 54 54 59 62 63 63 57 62 78 76 63 69 65 64 60 59 55 50 46 43 40 36 32 28 26 25 19 18 15 12
67 60 57 58 48 36 37 27 52 39 20 64 58 55 52 53 57 60 64 61 61 64 89 88 78 69 66 63 62 58 53 48 46 43 39 35 30 26 28 23 22 19 17
61 54 58 60 60 46 33 29 28 34 33 23 50 54 52 54 59 57 61 64 57 59 60 72 70 70 68 65 65 61 56 52 49 46 43 39 33 30 34 29 26 22 20
49 48 53 58 61 57 40 34 29 18 44 20 47 45 53 50 60 63 62 62 64 57 64 63 66 70 70 68 67 65 60 56 53 51 46 42 37 38 38 34 31 25 22
40 39 46 53 58 61 52 44 39 26 7 31 49 78 67 57 59 59 65 68 64 66 71 76 74 75 76 72 70 69 64 60 57 56 50 46 42 35 41 38 34 30 25
46 48 48 50 53 60 59 51 43 36 26 19 4 18 40 64 74 58 64 64 67 66 76 85 82 79 78 79 78 77 69 64 61 59 55 51 46 41 45 42 38 36 32
48 49 56 53 51 51 61 58 43 40 38 33 10 7 12 24 53 63 56 71 69 70 75 79 83 80 78 81 79 78 76 70 66 63 60 56 52 49 48 46 43 43 40
48 51 55 52 49 48 55 59 51 37 36 34 18 21 16 11 23 34 52 56 75 79 75 75 83 85 85 84 83 83 82 78 71 67 63 61 59 53 54 52 49 44 43
51 49 53 52 49 50 51 57 56 50 34 32 29 35 52 37 29 34 41 47 62 87 75 82 88 91 92 88 88 86 86 82 77 72 67 65 63 58 57 56 53 49 46
60 53 51 54 51 51 52 53 56 47 36 29 27 28 32 39 16 5 43 45 69 84 85 87 91 91 87 87 91 89 88 86 81 77 73 69 67 65 61 57 51 50 45
62 55 51 50 51 50 50 50 57 51 37 29 26 27 34 41 50 43 36 35 49 61 59 87 88 90 86 86 85 92 86 87 85 81 77 71 69 69 68 65 54 50 47
57 50 49 46 45 45 50 53 59 47 40 30 26 24 29 43 40 50 53 16 42 66 75 72 87 85 95 98 91 87 87 86 87 83 78 74 71 71 71 70 64 55 51
51 44 46 47 50 51 48 58 62 45 42 35 30 28 29 33 41 48 52 38 41 44 55 72 64 80 96 103 95 90 85 85 88 85 82 79 77 75 74 73 70 64 57
42 41 44 46 51 51 46 64 59 47 43 36 36 33 30 30 38 44 38 57 39 55 53 64 70 82 95 103 102 93 91 87 82 85 81 78 73 73 77 77 75 71 66
42 43 46 48 50 51 49 68 58 49 41 39 41 38 33 27 31 33 45 40 50 62 70 74 60 88 80 103 108 97 95 94 86 87 82 76 76 71 69 73 77 77 73
42 44 46 48 51 50 51 72 63 52 44 45 42 43 40 29 23 29 42 39 46 57 68 64 85 31 57 71 94 96 100 99 95 92 87 75 75 75 72 69 71 77 77
45 45 46 47 51 47 59 70 61 51 44 40 42 41 42 36 25 25 31 33 37 68 74 90 70 64 44 37 75 94 101 105 103 97 91 80 76 75 75 71 67 66 69
47 47 46 47 47 43 59 66 61 48 42 41 37 41 40 37 34 27 25 28 32 56 60 81 78 72 58 47 34 72 93 102 107 102 94 90 82 80 80 76 71 69 67
46 46 44 46 51 41 58 61 58 45 42 42 40 42 41 40 33 29 27 25 28 33 59 66 76 80 66 55 55 39 67 86 102 110 98 94 91 91 89 86 79 74 73
48 47 47 45 52 52 54 56 52 43 45 42 44 44 44 47 42 36 20 21 29 43 37 47 63 86 81 67 54 53 41 60 75 97 106 98 97 96 90 87 81 79 79
49 49 48 46 47 51 52 56 51 48 45 42 44 48 49 49 51 49 30 15 21 36 34 50 46 69 74 74 61 48 44 46 65 69 96 105 98 98 94 89 85 84 83
49 49 45 48 44 47 50 52 54 50 47 46 41 46 49 51 51 50 44 20 9 20 32 43 50 55 64 67 66 49 54 37 52 51 68 83 98 99 100 93 85 84 85
52 50 47 51 50 49 51 52 55 55 53 49 50 45 46 50 51 47 46 38 18 9 17 36 35 46 50 53 58 58 60 49 60 64 34 67 82 81 89 85 78 74 69
51 54 52 51 51 52 53 53 55 56 55 52 50 51 49 45 46 47 46 49 43 33 13 19 32 42 45 47 46 39 38 49 49 56 69 59 49 74 77 79 78 74 70
Wind_Direction_850mb
353 350 328 294 276 259 240 232 227 229 233 229 221 216 214 212 208 212 218 204 205 203 206 208 200 198 194 190 192 190 191 191 191 193 195 196 188 186 185 185 208 202 206
348 351 351 324 289 281 256 270 227 229 222 226 222 219 212 216 215 214 221 217 202 207 205 210 206 200 196 193 194 194 195 196 197 199 201 201 195 191 193 195 210 212 208
345 349 358 349 324 290 283 278 239 246 216 222 219 219 214 216 217 222 220 217 203 222 204 214 211 204 199 196 197 198 199 200 201 202 205 206 204 200 209 214 219 222 218
342 347 354 358 345 318 310 296 244 272 204 217 208 209 214 215 220 224 225 220 221 221 214 204 211 208 205 201 200 201 202 203 205 206 207 210 211 207 211 217 225 229 217
338 351 349 356 356 344 328 299 276 267 281 155 206 211 207 214 220 224 226 227 224 224 211 202 211 211 211 207 205 205 205 206 207 209 209 213 212 209 205 218 224 229 208
341 355 352 349 358 356 344 338 293 292 247 230 223 206 219 223 222 223 224 228 222 217 212 217 214 215 215 213 210 208 208 208 209 211 212 215 211 209 206 209 219 222 199
340 349 345 350 353 359 354 342 334 311 255 240 215 226 223 224 235 230 226 225 226 230 223 217 215 214 213 215 214 211 210 212 212 213 213 214 215 223 210 212 213 206 196
353 357 351 357 355 355 1 355 349 327 297 311 206 190 222 230 223 237 227 225 224 224 224 220 215 216 214 214 217 212 212 214 215 217 215 214 216 212 212 211 210 209 200
357 358 357 354 357 356 359 1 354 344 317 304 237 277 185 212 220 236 229 230 225 223 218 219 218 218 218 221 219 215 213 214 217 218 218 216 212 211 212 216 215 213 204
359 358 353 353 357 356 357 358 359 346 337 313 276 203 233 192 215 224 222 225 227 228 227 235 228 225 222 223 224 220 216 215 218 219 220 218 218 219 219 221 220 220 210
356 357 355 353 356 358 356 355 357 357 340 327 304 273 252 250 233 203 224 220 224 229 238 234 232 226 227 224 226 225 222 218 217 221 220 221 221 223 220 225 222 225 216
358 357 358 356 355 355 356 352 353 354 351 330 312 280 265 265 223 174 220 215 220 231 235 231 228 227 226 228 226 229 226 223 220 221 222 222 223 224 228 235 230 223 224
0 355 352 353 354 353 352 349 351 351 355 342 323 298 262 249 257 246 256 246 233 231 241 229 231 231 228 229 231 230 229 228 224 223 224 225 224 225 227 235 240 236 232
353 351 348 353 351 351 350 348 351 352 354 346 331 306 289 248 250 240 254 252 231 227 242 248 235 232 232 229 228 231 230 227 225 226 225 226 227 227 228 232 238 236 236
351 349 349 352 353 354 352 353 352 355 357 353 341 326 306 265 243 248 244 234 247 208 227 243 231 239 232 232 229 227 228 226 223 224 224 227 229 228 230 232 237 238 235
0 355 354 355 355 359 354 352 354 358 358 1 350 331 311 286 254 246 242 230 242 230 232 236 230 241 236 231 231 227 227 226 223 222 221 223 226 226 229 232 235 238 237
4 0 359 360 359 2 352 354 359 359 1 360 354 343 331 302 263 248 240 241 224 242 235 235 253 231 233 233 230 227 230 228 224 219 219 222 223 223 225 229 232 235 236
4 2 2 360 359 358 349 355 358 360 4 2 351 351 344 325 274 263 241 241 217 226 238 230 234 239 211 227 231 230 229 227 224 219 218 223 225 226 226 227 230 232 235
5 6 7 1 357 1 351 355 357 360 5 360 358 354 352 343 318 275 253 243 236 216 232 229 242 258 243 219 224 230 231 230 227 224 219 226 230 230 230 228 229 232 234
6 7 9 6 359 0 347 354 357 4 4 360 3 5 0 355 343 317 282 251 240 221 227 239 244 244 253 249 212 219 227 230 228 225 223 226 229 233 235 233 232 233 234
10 9 8 8 2 356 351 356 358 7 6 4 8 7 7 2 352 339 310 266 255 223 215 228 233 232 245 255 248 218 221 232 230 226 226 226 225 230 232 233 233 234 236
11 9 8 10 0 3 360 4 5 7 11 10 7 7 9 6 358 352 332 294 259 244 229 212 233 230 240 251 256 246 220 217 219 226 226 228 225 227 229 230 231 231 231
8 9 10 12 11 8 5 8 11 14 14 11 11 6 7 8 6 358 355 323 267 246 233 226 214 225 241 243 245 241 238 230 225 224 227 229 229 232 234 236 237 239 241
9 8 11 14 15 18 12 13 15 17 16 19 14 14 9 7 7 4 1 356 303 244 241 235 227 206 218 233 239 238 248 238 236 216 223 233 237 236 237 238 239 240 240
15 17 19 18 22 24 22 18 16 19 18 18 21 16 15 11 5 6 6 15 5 293 240 242 229 208 209 209 224 224 230 234 245 229 219 224 236 241 238 239 238 237 237
17 23 24 24 25 26 26 22 20 18 19 21 22 17 16 14 10 9 12 14 16 8 329 242 250 247 241 232 229 197 220 240 249 256 237 245 227 232 238 239 239 239 241